Погода в Николе

Россия / Костромская область     58°49′20″N   46°41′43″E
темп.,
°C
ветер,
м/с
пор.,
м/с
влажн.,
%
обл.,
%
осадки,
мм/ч
давл.,
гПа
погр.,
м
18 мая, вт
вт1800:00+14св228755 0.0 101830
03:00+12в2494100 0.0 101984
06:00+15в368275 0.0 1019208
09:00+21вюв356150 0.0 1019685
12:00+24вюв345067 0.0 10191217
15:00+25вюв344767 0.0 10191239
18:00+23вюв365932 0.0 1018331
21:00+17вюв31071100 0.0 1019175
19 мая, ср
ср1900:00+15юв3107963 0.0 1019205
03:00+13вюв21084100 0.0 1019207
06:00+16юв397675 0.0 1019279
09:00+21юв475584 0.0 1019705
12:00+25юв564327 0.0 10181341
15:00+26юв46385 0.0 10181638
18:00+23юв48525 0.0 1017455
21:00+16юв311745 0.0 1018183
20 мая, чт
чт2000:00+14юв39815 0.0 1017172
03:00+14юв3118311 0.0 1017225
06:00+17юв310745 0.0 1017282
09:00+23юв58533 0.0 1016841
12:00+25ююв6838100 0.0 10151791
15:00+26юв58352 0.0 10141866
18:00+23ююв49472 0.0 1013908
21:00+16юв310735 0.0 1013212
21 мая, пт
пт2100:00+15юв313735 0.0 1012334
03:00+13юв41277100 0.0 1011312
06:00+16юв412675 0.0 1010379
09:00+20ююв5853100 0.0 1009899
12:00+16ююз4784100 1.2 1009502
15:00+14ююв3893100 5.4 1010641
18:00+17ююз498656 0.8 1009831
21:00+14юз4119143 3.1 1010390
22 мая, сб
сб2200:00+12юз499594 0.1 1012387
03:00+11зюз4897100 0.1 1015432
06:00+12з248591 0.0 1017505
09:00+16зюз3465100 0.0 10181028
12:00+17зюз4553100 0.0 10181505
15:00+16юз3361100 0.0 10181235
18:00+14юз2570100 0.0 1019380
21:00+10ююз248218 0.0 101966